It's Wednesday,
August 4th, 2021
User not logged in
[Run Race Header Image][Run Race logo]
  
Race webcasting is attempted by race directors and their support staff. Please remember that conditions under which they're working may make it difficult to post timely webcast updates... your interest and patience is appreciated!
Race Information
Race Name:Mad City 100K - 2010
Location:Madison
State:Wisconsin, United States
 button: button: Webcast Autoplay
Event Information
Name of Event:Mad City 100K (solo)
Distance:100 Kilometers
Started Date/Time:Saturday April 10th, 2010, 6:31:01.16 am
button: Assign Numbers 

Event Information
Name of Event:Mad City 50K Relay (2 to 5 runners)
Distance:50 Kilometers
Started Date/Time:Saturday April 10th, 2010, 8:00:15.00 am
button: Assign Numbers  
Checkpoint:4th Loop - 40 Km
Distance:24.855 Miles
Gun Start Time:Saturday April 10th, 2010 8:00:15 am
Calculate Chip Start Time:< not set >
Y or N... Calculate splits based upon participant chip start time?
Allow Early Chip Start Time:< not set >
Y or N... Allow participants a chip start time prior to gun start?
Pos Race
Number
NameAgeSexTimePace 
12414 Guys and a Crazy Legs ChampM2:43:16.66:34.1
2336Running with the BadgerM2:58:00.77:09.7
3381Movin' ShoesF2:58:17.97:10.4
42961/5 of CrazyF3:00:07.17:14.8
5251We've Got The Runs M3:03:59.27:24.1
6226Frenetic Fiery Frenzied Flying Feet of FuryM3:08:25.57:34.9
7346Super YoopersM3:10:47.27:40.6
8311Marquette Triathlon ClubF3:16:31.87:54.4
9271Who needs Tabraiz?F3:17:07.27:55.8
10391Chocolate ThunderM3:18:08.57:58.3
11406Wisconsin State JournalF3:19:01.08:00.4
12201Whatever, It's Only 50kM3:20:06.78:03.1
13261Madison Multisport OrangeF3:21:17.18:05.9
14211No Fly ListF3:22:18.88:08.4
15236SWAT ONEM3:23:40.08:11.6
16321Honduras ExpressF3:28:45.68:23.9
17331Marquette Triathlon Club 2F3:29:23.88:25.5
18231Taking 10 for the TeamF3:30:00.28:26.9
19246Arborescent RhizomesM3:31:12.38:29.8
20366Welsh WarriorsF3:34:05.78:36.8
21386#1M3:34:26.38:37.7
22291SVM Runners 4F3:37:28.38:45.0
23286SVM Runners 3F3:38:04.28:46.4
24266Madison Multisport BlueF3:40:18.78:51.8
25306Weary TravelersF3:41:42.98:55.2
26341Weary Travelers 2F3:41:45.08:55.3
27401La Famiglia: A Lapacinski's sequelF3:41:54.08:55.7
28301Run-ternsF3:47:47.39:09.9
29376Bringing Up the RearF3:47:49.79:10.0
30351Red Byrd'sF3:49:09.59:13.2
31216We Book F3:57:03.49:32.3
32361Lawton & Cates M3:58:22.19:35.4
33221We Book2F4:01:06.59:42.0
34206Outdoor DivasF4:01:14.09:42.3
35276SVM RunnersF4:02:12.29:44.7
36281SVM Runners 2F4:02:12.39:44.7
37371In-Training Exam All-StarsM4:04:42.19:50.7
38326Feel the Burn!F4:06:27.09:54.9
39316Oconomowoc FD and PDF4:13:12.010:11.2
40356Blue Byrd'sF4:16:32.310:19.3
41256Got-To-GoF4:45:29.111:29.2

Event Information
Name of Event:Mad City 50K (solo)
Distance:50 Kilometers
Started Date/Time:Saturday April 10th, 2010, 8:00:15.00 am
button: Assign Numbers 
2004-2021 : All rights reserved
Terms and Conditions